Location: Dana
(41.8364°N, 106.7042°W)
Time: 14:33:48
(UTC+00:00)

Tiros 1 despin weight - Pass Details

Date: 18 May 2026
Orbit: 554 x 591 km, 48.2° (Epoch: 6 June)

Event Time Altitude Azimuth Distance (km) Brightness Sun altitude
Rises 17:07:43 0° 293° (WNW) 2,734 ? 57.0°
Reaches altitude 10° 17:10:05 10° 285° (WNW) 1,834 ? 57.4°
Maximum altitude 17:13:55 36° 218° (SW) 885 ? 58.0°
Drops below altitude 10° 17:17:45 10° 151° (SSE) 1,825 ? 58.5°
Sets 17:20:07 0° 143° (SE) 2,718 ? 58.9°
